星链-32212 (STARLINK-32212)

导读 | 星芒AI

STARLINK-32212 是 SpaceX Starlink 卫星互联网项目中的一颗低轨卫星,属于第6批部署的星链卫星群。该卫星于2023年发射,旨在为全球用户提供高速、低延迟的互联网服务。它运行在约550公里高的近地轨道,配备先进通信设备,支持Ka和Ku频段传输。Starlink 项目致力于构建覆盖全球的卫星网络,尤其服务于偏远和网络基础设施薄弱的地区。STARLINK-32212 在提升全球互联网接入能力方面发挥着重要作用。

基本信息
目录编号:
60256
目录名称:
STARLINK-32212
国际标识:
2024-131B
轨道中心:
EARTH
卫星名称:
星链-32212 (STARLINK-32212)
卫星全名:
星链-32212 (STARLINK-32212)
卫星状态:
在轨 (已飞行511 天)
发射日期:
2024-07-27 UTC
国别 :
美国 (US)
星等 :
--
轨道信息
数据来源 国际轨道数据
星历时间: 2025-12-20T06:22:44+0800
8小时前
查看轨道信息
半长轴: 6853.383km
偏心率: 0.0001214
轨道倾角: 53.161°
近地点辐角 82.048°
升交点赤经 63.179°
平近点角 278.066°
近地点: 474.413km
远地点: 476.079km
周期: 94.106分钟
每日圈数: 15.301899
详细信息
卫星平台:
Starlink v2.0 mini
运营商:
太空探索技术公司
运营商所在国:
美国
制造商(研发单位):
太空探索技术公司
制造商所在国:
美国
使用方式:
暂无
卫星简介
星链(Starlink)计划是由太空探索技术公司(SpaceX)提出的一个巨型低轨卫星互联网星座项目,计划在2019年至2024年间在太空搭建由约1.2万颗卫星组成的“星链”网络,其中1584颗将部署在地球上空550千米处的近地轨道,并从2020年开始工作。该卫星仍在工作。
2D轨道图
3D轨道图
轨道高度分析图
轨道倾角分析图
轨道综合分析图
查看轨道综合分析图